Main page
METAR-TAF:

METAR-TAF

Airports :

Iranshahr, Iran

latitude: 27-12N, longitude: 060-42E, elevation: 591 m

Current weather observation

The report was made 16 minutes ago, at 17:00 UTC
Wind 12 kt from the Northeast
Temperature 42°C
Humidity 9%
Pressure 1001 hPa
Visibility 10 km or more
Few clouds at a height of 4500 ft

METAR: OIZI 261700Z 04012KT 9999 FEW045 42/03 Q1001

Time: 21:46 (17:16 UTC)


TAF: missing

Weather observations and forecasts of more than 4000 airports (METAR and TAF reports).

The available stations are represented by yellow and red dots on the map.

Hover mouse over dot to see the name of the station.

Then click to see weather observations and forecasts.

To change the map : click on the green buttons with a black cross to zoom in, on the green button with a dash to zoom out, or on the green arrows for adjacent maps.


METAR-TAF: